Uncategorized

2021 Ratings: Pete Moss (Benzie)

Riley Hough with the highest rating in the MIXCSR era!

Girls Adjustment: -11
Boys Adjustment: -7

GradeNameTimeTeamRating
12Julia Flynn17:17.6Traverse City Central177.8
10Rachel Forsyth17:45.0Ann Arbor Pioneer168.7
12Madelyn Frens17:56.0Grand Rapids Christian165.0
12Sarah Forsyth18:12.3Ann Arbor Pioneer159.6
10Alyson Enns18:15.3Hart158.6
12Cookie Baugh18:25.1Ann Arbor Pioneer155.3
10Mary Richmond18:33.9Frankenmuth152.4
10Natalie VanOtteren18:44.7Grand Rapids Christian148.8
11Emily Cooper18:46.5Ann Arbor Pioneer148.2
10Selma Anderson18:49.6Grand Rapids Ottawa Hills147.1
12Ainsley Workman18:49.9East Grand Rapids147.0
12Makenna Scott18:51.1Maple City Glen Lake146.6
10Drew Muller18:54.9East Grand Rapids145.4
10Aiden Harrand18:55.1Buckley145.3
9Jessica Jazwinski19:00.6Hart143.5
11Sophia Rhein19:00.7Traverse City St. Francis143.4
12Julia Finley19:04.9Belding142.0
10Ella Kirkwood19:06.2Traverse City Central141.6
10Alexis Ball19:12.9Traverse City Central139.4
12Elliott Smith19:17.5Traverse City West137.8
10Natalie Mello19:23.3Ann Arbor Pioneer135.9
11Annika Sandman19:24.1Lowell135.6
12Adit Dau19:28.1Grand Rapids Ottawa Hills134.3
10Mylie Kelly19:30.1Benzie Central133.6
12Audrianna Enns19:36.0Hart131.7
10Sophia Lado19:38.0East Grand Rapids131.0
12Charlotte Batra19:40.1Ann Arbor Pioneer130.3
10Ava King19:41.4Traverse City West129.9
10Miranda McNeil19:42.3Morley-Stanwood129.6
11Maya Guikema19:42.7Jenison129.4
11Adelaida Gascho19:44.8Johannesburg-Lewiston128.7
12Lily Strelecki19:45.1Jenison128.6
10Ella Christensen19:45.3Northville128.6
9Sadey Seyferth19:46.3East Grand Rapids128.2
9Cassie Garcia19:46.3Northville128.2
11Lily Parker19:54.9Spring Lake125.4
10Amelia Thompson19:55.3Big Rapids Crossroads Academy125.2
9Betsy Skendzel20:06.9Traverse City St. Francis121.4
11Katrina Sandman20:09.1Lowell120.6
10Payton Holtz20:10.6Grand Rapids Christian120.1
12Gina Couyoumjian20:11.2Northville119.9
11Camryn Bodine20:13.3East Grand Rapids119.2
9Grace Slocum20:16.1Traverse City St. Francis118.3
12Gabriella Wingard20:22.1North Muskegon116.3
9Lexie Ruffing20:25.1Spring Lake115.3
11Kathleen Venhuizen20:29.6Traverse City Central113.8
11Maggie Otto20:32.4Jenison112.9
12Isabelle Auch20:41.3Montague109.9
12Hailey Lenhard20:45.7Frankenmuth108.4
9Lexie Beth Nienhuis20:47.1Hart108.0
9Maya Labonte20:50.7Northville106.8
10Adia Sikkema20:50.9Grand Rapids Christian106.7
10Naomi Nelson20:51.1Grand Rapids Christian106.6
11Ava Pergitone20:54.2St. Clair105.6
11Anna Triezenberg20:55.7Grand Rapids Christian105.1
11Keira Sandman20:57.7Lowell104.4
11Katelyn LaRue21:00.0Grand Rapids Christian103.7
10Reese Workman21:01.5East Grand Rapids103.2
11Robyn Hunt21:03.4Muskegon Mona Shores102.5
11Emma Soelberg21:05.8Shelby101.7
10Madelyn Vande Bunte21:08.4Jenison100.9
12Lexi Hodges21:14.3Traverse City West98.9
10Gwendalynn Rickard21:17.3Big Rapids97.9
9Allison Nobis21:19.1Clare97.3
12Hattie Veenkant21:19.9Clare97.0
9Autumn Brower21:22.6Ludington96.1
10Cecilia Postma21:24.0Manistee95.7
12Taylor Myers21:24.3Frankfort95.6
11Carolyn Bennett21:24.4North Muskegon95.5
11Nora Smoes21:25.6Reed City95.1
10Rylee Duffing21:30.2Traverse City St. Francis93.6
12Madison Rempalski21:32.0Grand Rapids Northview93.0
12Lauren Wooer21:32.4Kingsley92.9
11Ella Thomas21:34.6Traverse City West92.1
9Rose Gregory21:34.8Northville92.1
12Lauren VanderLaan21:37.4Hart91.2
9Summer Brower21:37.5Ludington91.2
11Anna Gdowski21:37.5Northville91.2
12Kate Langworthy21:40.4Big Rapids90.2
9Nadia Grierson21:41.8Ludington89.7
10Katherine Cook21:45.9Grand Rapids Northview88.4
10Avery Peters21:48.7Northville87.4
11Lily Teitsma21:49.8Grand Rapids Christian87.1
10Cassidy Sanders21:50.6Grand Rapids Northview86.8
12Sofiah Coker21:51.0Clare86.7
10Carley Lamborne21:51.7Belding86.4
10Grace Moeggenborg21:54.5Traverse City West85.5
12Reese Ensing21:55.5McBain85.2
12Eleanor VanderMolen21:56.9East Grand Rapids84.7
11Lola Reimers21:57.5Traverse City Central84.5
12Jenna Pegman22:00.5Grand Rapids Christian83.5
9Anya Steele22:00.5Coopersville83.5
10Campbell Hansen22:01.2Grand Rapids Ottawa Hills83.3
12Molly Kline22:02.9Almont82.7
9Clare Conzelmann22:03.0Frankenmuth82.7
12Anna Doublestein22:03.8East Grand Rapids82.4
9Allye Risner22:05.9Lowell81.7
12Anna Huizinga22:06.6Manistee81.5
12Hailey Wanstead22:06.7Leroy Pine River81.4
11Petra Foote22:07.1Grand Traverse Academy81.3
9Mya Denoyer22:08.0Leland81.0
9Lucy Shoup22:08.7Mason County Eastern80.8
11Elizabeth Rigling22:09.0Leroy Pine River80.7
10Maggie Reszka22:10.3East Grand Rapids80.2
11Cecilia Conrad22:10.6Muskegon Mona Shores80.1
12Frances Hoffman22:12.5East Grand Rapids79.5
11Sarah Timmer22:13.3Grand Rapids Christian79.2
10Casey Leonard22:22.4Northville76.2
11Kennedy Hynde22:23.1Muskegon Reeths-Puffer76.0
9Ava Unger22:23.7Northville75.8
10Charlise Schulz22:25.2Traverse City West75.3
12Anna Stempky22:25.4Spring Lake75.2
10Lilly Houle22:25.5Muskegon Mona Shores75.2
10Eva Pray22:31.2Elk Rapids73.3
12Lillian Mauntler22:31.5Bear Lake-Onekama73.2
12Grace Lockhart22:31.9Muskegon Reeths-Puffer73.0
12Ava Tatko22:34.5Grand Rapids Christian72.2
12Makaela Schmidt22:35.8Spring Lake71.7
9Allie Nowak22:36.0Johannesburg-Lewiston71.7
9Carly Carlson22:36.5Reed City71.5
11Ella Gaylord22:37.6Benzie Central71.1
10Kaitlyn Miller22:37.8Frankenmuth71.1
10Mackenzie Keillor22:39.5Ludington70.5
12Catherine Leahy22:41.4Elk Rapids69.9
9Claire O’Boyle22:41.4Lowell69.9
10Maddie Gallagher22:42.1Traverse City St. Francis69.6
10Olivia Wing22:42.6Mason County Eastern69.5
9Mary Masserant22:42.8Traverse City St. Francis69.4
10Emily Anger22:42.9Mancelona69.4
9Alyssa Fouchey22:43.2Traverse City West69.3
10Madalyn Agren22:43.7Johannesburg-Lewiston69.1
9Ava Iverson22:43.9Benzie Central69.0
11Julia Jones22:44.9Grand Traverse Academy68.7
12Paige Lofquist22:46.1Reed City68.3
12Jennifer Judge22:47.5Spring Lake67.8
10Cammie Erickson22:47.6Montague67.8
10Margot Hagerty22:50.0Traverse City St. Francis67.0
10Avery Hecksel22:50.3East Grand Rapids66.9
Payton Lamb22:51.3Lake Leelanau St. Mary66.6
12Paige Hockley22:51.4Ann Arbor Pioneer66.5
11Eva Shinabery22:51.8Muskegon Reeths-Puffer66.4
11Allie Groenenboom22:53.5Grand Rapids Christian65.8
9Abbi Wildfong22:55.2Mancelona65.3
10Baylie Eisenga22:55.5McBain65.2
10Rosalinda Gascho22:57.6Johannesburg-Lewiston64.5
10Kelsey Saxton22:58.0Kingsley64.3
11Bridgette Duncan22:58.6Leland64.1
9Olivia VerBeek22:59.2Jenison63.9
12Abby Leigh22:59.5Clare63.8
10Mary Jane McGovern22:59.5East Grand Rapids63.8
9Mackenzie Zahm23:01.1Belding63.3
10Ava Pomaranski23:01.3Traverse City St. Francis63.2
12Mallory Houlihan23:03.8East Grand Rapids62.4
12Rachael Barone23:04.7Jenison62.1
9Megan Lillie23:08.2Lowell60.9
12Hayley VanWagoner23:10.2Benzie Central60.3
11Kelly Huis23:11.3Kingsley59.9
9Lauren Tower23:11.8Jenison59.7
11Isabell Peltier23:12.2Kingsley59.6
10Robyn Tatko23:12.2Grand Rapids Christian59.6
10Abby Kissling23:14.6Brethren58.8
11Brooklyn Whiteford23:17.4Kalkaska57.9
9Reese Hansen23:18.3Grand Rapids Ottawa Hills57.6
9Hunter Schellenbar…23:18.8Elk Rapids57.4
11Rylee Cohoon23:19.5Lake City57.2
9Randi Pennington23:20.5Jenison56.8
12Jamara Harper23:21.4Lowell56.5
12Emma Hilbert23:21.9Ann Arbor Pioneer56.4
12Tioloman Traore23:25.4Traverse City Central55.2
9Clara Smoes23:26.9Reed City54.7
10Katie Riemersma23:27.6Spring Lake54.5
9Naomi Diekman23:28.8Jenison54.1
11Katelynn Jalosky23:29.3St. Clair53.9
11Grace Hillier23:29.5Kingsley53.8
12Adriana Courtney23:29.6Northville53.8
12Marguerite Church23:30.2Traverse City West53.6
10Kendra Couturier23:31.7Lake Leelanau St. Mary53.1
12Kaylee Byrne23:31.9Lowell53.0
9Ava Quasney23:32.9Northville52.7
11Maddie Zehnder23:33.6Frankenmuth52.5
9Tess Peters23:35.0East Grand Rapids52.0
10Anna Burton23:35.5Ludington51.8
10Olivia Andersen23:36.0Ludington51.7
12Sarah Zamaites23:36.5Elk Rapids51.5
9Lilliana Matatov23:37.4Northville51.2
11Jersey Johnson23:40.2Leroy Pine River50.3
9Gabrielle Edenburn23:41.9Traverse City West49.7
12Allie Thomas23:42.3Manistee49.6
10Emmalee Springer23:42.4Belding49.5
9Kennedy Mey23:43.8Hesperia49.1
10Oliviah Malloy23:44.4Big Rapids48.9
12Allie Boyd23:44.7Clare48.8
10Maya Noren23:45.2Spring Lake48.6
11Anna Mitchell23:46.6Lake Leelanau St. Mary48.1
12Isabel Schroeder23:47.2Clare47.9
9Evelyn Vandlen23:48.0Spring Lake47.7
10Ali Stone23:48.0Traverse City West47.7
11Josie Fairbanks23:50.0Roscommon47.0
11Evelyn Brodeur23:50.1Traverse City West47.0
9Emerson Wertman23:51.2Johannesburg-Lewiston46.6
10Ellie Miller23:51.6Spring Lake46.5
9Bethany Zimmerman23:52.4Spring Lake46.2
12Rebekah Sweany23:52.9Muskegon Reeths-Puffer46.0
10Naomi Wang23:52.9Northville46.0
11Hannah Hillary23:53.2East Grand Rapids45.9
10Madisyn Lundquist23:53.4Cadillac45.9
9Molly Padilla23:53.5Grand Rapids Christian45.8
11Sadie Quackenbush23:53.6Montabella45.8
10Esme Durbin23:53.6Traverse City West45.8
9Kate Witherell23:55.3Spring Lake45.2
11Lizzy Halbert23:55.6Johannesburg-Lewiston45.1
11Abigail Pretty23:56.1Hart45.0
10Annie Paulson23:56.9Traverse City St. Francis44.7
11Grace Hojnacki23:57.1East Grand Rapids44.6
11Meagan Lange23:57.2Forest Area44.6
10Ayla DeLaurier23:57.6Almont44.5
9Jenna Kline23:57.9Almont44.4
9Allie Komarowksi23:59.3St. Clair43.9
10Trista Card24:00.0St. Clair43.7
12Zoey Deam24:01.4Big Rapids43.2
12Samantha Rivera24:02.4Northville42.9
10Megan Skrade24:03.0Northville42.7
10Jada Schulte24:05.4Elk Rapids41.9
10Amelia Schihl24:07.3McBain41.2
10Anna Lindstrom24:07.7Grand Rapids Christian41.1
11Josie Guinther24:08.6Frankenmuth40.8
9Alaina Hanson24:09.3Reed City40.6
12Isabella Padula24:10.2Spring Lake40.3
9Joslyn Nelson24:11.8Morley-Stanwood39.7
9Lilly Hopkins24:12.7Hart39.4
9Brooklyn Carter24:13.7Hart39.1
9Taylor Seibt24:17.4Clare37.9
12Lydia Sterly24:17.6Leroy Pine River37.8
9Genesis Wilson24:18.6McBain37.5
9Keila Gort24:18.9East Grand Rapids37.4
9Hadley Tiffany24:20.8Lakeview36.7
10Bailey Seibt24:21.1Clare36.6
11Kaylee Schelich24:21.8Kingsley36.4
9Bella Ebright24:22.6Grand Rapids Ottawa Hills36.1
12Clair Czadzeck24:22.7Spring Lake36.1
11Liliana Wilstermann24:23.0Grand Rapids Christian36.0
12Lizzy Koratich24:24.3Spring Lake35.6
11Simone Kaechele24:28.4Clare34.2
10Megan Veitengruber24:29.8Clare33.7
10Anika Bouwman24:30.6Grand Rapids Christian33.5
10Anneliese Jones24:30.6Ann Arbor Pioneer33.5
11Samantha Hill24:35.2Muskegon Mona Shores31.9
9Evie Culver24:35.3Frankenmuth31.9
12Natalie Havristiuc24:35.7Northville31.8
10Rowan Ensing24:36.5McBain31.5
12Maci Ricks24:37.6Traverse City West31.1
10Hadley Hilt24:39.1Cadillac30.6
10Delaney Hendricks24:39.3Grand Rapids Northview30.6
12Tara Townsend24:39.4Frankfort30.5
9Shauna McLean24:40.8McBain30.1
12Sophie Dech24:40.9Coopersville30.0
9Jenna VanSkyhock24:41.1Maple City Glen Lake30.0
10Elizabeth Woller24:43.0Montague29.3
12Isabel Toole24:45.2Grand Rapids Northview28.6
10Nora Boufford24:45.3Spring Lake28.6
12Gina VanderKodde24:45.6Hart28.5
9Ana Heagle24:45.9Grand Rapids Christian28.4
10Elayna Feliks24:46.7Northville28.1
11Anna Wolfe24:50.0Frankfort27.0
10Hannah Barone24:50.3Jenison26.9
9Savanna Siewert24:51.4Almont26.5
12Melanie Valtadoros24:51.7Ann Arbor Pioneer26.4
11Amanda Hill24:53.1Leroy Pine River26.0
9Mara VanWagner24:55.9Kingsley25.0
9Sayla Bender24:58.8Kingsley24.1
12Clara Leahy25:01.1Elk Rapids23.3
10Amelia Walchak25:01.6East Grand Rapids23.1
10Lily Ward25:06.0Clare21.7
9Maya Padisak25:06.3Traverse City St. Francis21.6
11Haylie Haner25:07.9Big Rapids21.0
9Nora Grossnickle25:08.4Benzie Central20.9
11Savanna Owens25:10.3Hart20.2
10Paige Bell25:11.6Grand Traverse Academy19.8
10Cora Mullins25:12.5Johannesburg-Lewiston19.5
12Rachel Collins25:13.7Traverse City Central19.1
12Jordan Fox25:14.2Lake City18.9
11Ashley Davis25:14.8Muskegon Mona Shores18.7
11Brianna Bender25:16.3Kingsley18.2
9Kate May25:16.6Frankfort18.1
9Isabella Gulembo25:17.5Mason County Eastern17.8
10Kaitlin Buys25:18.9Big Rapids Crossroads Academy17.4
10Jackie Cole25:20.3Big Rapids Crossroads Academy16.9
12Audrey Darling25:21.1Muskegon Reeths-Puffer16.6
11Morgan Anderson25:23.0Roscommon16.0
12Amelia Malburg25:23.5Mason County Eastern15.8
9Muriel Korson25:23.8Lake Leelanau St. Mary15.7
9Asha Bates25:23.9Northville15.7
10Charlotte Hill25:25.6Frankenmuth15.1
10Kara Forsberg25:26.0Clare15.0
12Lily Starr25:26.7Grand Rapids Northview14.8
11Kiersten Schmitt25:29.3Grand Rapids Christian13.9
9Alex Knapp25:29.4Northville13.9
12Brooklyn German25:29.8Belding13.7
9Ada Feasby25:32.6Spring Lake12.8
9Naomi Force25:32.9Spring Lake12.7
9Lydia Recor25:33.9Spring Lake12.4
10Megan Norton25:34.9Spring Lake12.0
9Mia Powell25:35.9Grand Rapids Christian11.7
11Catherine Vandergr…25:37.0Spring Lake11.3
9Catherine Taft25:39.3Clare10.6
9Emma Chittle25:40.1Traverse City St. Francis10.3
12Sydney Gage25:40.6Mason County Eastern10.1
9Alexa Cleary25:41.0Frankenmuth10.0
10Fiona Kline25:41.2McBain9.9
11Ellie Holka25:42.3Kalkaska9.6
9Jessica Grant25:43.9Lake Leelanau St. Mary9.0
10Jayden Baker25:45.4Mason County Central8.5
11Aubrey Klots25:46.0Shelby8.3
11Kelly VanderKodde25:52.1Hart6.3
12Emma Arnold25:53.5Kingsley5.8
10Abbie Wiegers25:55.9North Muskegon5.0
11Sydnie LaPreze25:56.9Morley-Stanwood4.7
9Riley Ingraham25:57.3Belding4.6
11Lauren VanderWulp25:59.5Lake Leelanau St. Mary3.8
11Bettyann Cornutt26:01.7Suttons Bay3.1
10Hope Beaune26:01.9Coopersville3.0
9Lauren Pretty26:02.2Hart2.9
9Megan Gottschall26:03.3Lake City2.6
12Eryn Bouwhuis26:04.7Spring Lake2.1
12Kamdyn Burns26:05.0Spring Lake2.0
12Avery Knoll26:05.4Frankenmuth1.9
10Delaney Schultz26:05.7Montague1.8
12Brooke Wilkie26:06.1Buckley1.6
12Katie Albert26:06.5Belding1.5
9Katie Rangel26:10.1Ludington0.3
11Anna VanDuinen26:10.8Pentwater0.1

GradeNameTimeTeamRating
12Riley Hough14:41.2Hartland228.6
11Hunter Jones15:00.4Benzie Central222.2
12Jeremy Williams15:31.9Lapeer211.7
12Luke Venhuizen15:47.3Traverse City Central206.6
12Klay Grant15:51.3Muskegon Reeths-Puffer205.2
11Jonah Hochstetler15:58.1Traverse City West203.0
11Benne Anderson16:04.2Grand Rapids Ottawa Hills200.9
12Ian Hill16:05.4Spring Lake200.5
11Micah Bauer16:07.4Traverse City Central199.9
12Caden Meyer16:09.1Zeeland East199.3
12Juan David Hernandez16:14.7Grand Rapids Ottawa Hills197.4
12Sawyer Fowler16:20.1Lowell195.6
11Joe Muha16:24.7Traverse City Central194.1
12Tyler Guggemos16:25.4Kalkaska193.9
12Ben Zwart16:25.5Grand Rapids Christian193.8
12Cole Weston16:31.3Lowell191.9
12Michael Williams16:33.0Lapeer191.3
12Tinsae Nelson16:37.7Grand Rapids Christian189.8
12Isaac Stone16:38.5Traverse City West189.5
10Alex Thole16:48.7East Grand Rapids186.1
11Benjamin Bromley16:53.6Lowell184.5
11Clayton Ackley16:54.7Hart184.1
11Caleb Branch16:54.8Muskegon Mona Shores184.1
12Noah Bosley16:56.4Hart183.5
10Willem DeGood17:02.9Traverse City West181.4
11Jett Reimers17:03.0Traverse City Central181.3
12Jackson Fowler17:06.4Lowell180.2
12Sam McDonough17:09.0Traverse City Central179.3
11Elijah Robinson17:10.2East Grand Rapids178.9
9Josh Slocum17:12.8Traverse City St. Francis178.1
12Luke Dykstra17:13.6East Grand Rapids177.8
11Jacob Wartenberg17:14.4Johannesburg-Lewiston177.5
9Seth Conner17:14.7Jenison177.4
11David Harris17:16.9St. Clair176.7
10Blake Fox17:18.3Johannesburg-Lewiston176.2
11Reuben Wiering17:18.5Grand Rapids Christian176.2
10Anthony Kiaunis17:18.7Reed City176.1
10Dylan Clark17:19.1Grand Rapids Christian176.0
10Zack Truszkowski17:19.2Traverse City Central175.9
10Drew Moore17:19.3Grayling175.9
12Cole Cunningham17:20.7St. Clair175.4
10Brad White17:21.1Clare175.3
12Josh Fairbanks17:23.0Roscommon174.7
10Cole Visser17:23.0Jenison174.7
11Ryan McMahon17:23.2East Grand Rapids174.6
10Malaki Gascho17:24.1Johannesburg-Lewiston174.3
9Simon Triezenberg17:26.8Grand Rapids Christian173.4
10Aidan Kreps17:28.0Muskegon Mona Shores173.0
12Joey Shotts17:28.3Jenison172.9
11Nate Wing17:28.4Mason County Eastern172.9
9Kye Grant17:28.7Muskegon Reeths-Puffer172.8
12Collin Fall17:29.6Frankenmuth172.5
10Davis Christy17:29.8East Grand Rapids172.4
10Joe Waalkes17:30.1Grand Rapids Christian172.3
10Jaxon Allen17:31.7Muskegon Reeths-Puffer171.8
12Jonas Lanser17:32.0McBain Northern Michigan Christian171.7
11Ryan Kamp17:33.2Grand Rapids Northview171.3
11Ethan Smith17:33.3Jenison171.2
10Ryan Brinker17:33.8East Grand Rapids171.1
11Josh Kerr17:35.0Traverse City St. Francis170.7
12Sam Davidson17:36.7Spring Lake170.1
11Dakota Dykhuis17:37.0Montabella170.0
10Maxwell McCarty17:37.9Belding169.7
10Tucker Krumm17:38.3Traverse City St. Francis169.6
12Carter Phillips17:39.1Spring Lake169.3
10Ryan Allen17:42.7Reed City168.1
12Thomas Richards17:44.6Traverse City St. Francis167.5
12Hayden Moore17:44.8Kalkaska167.4
11Ethan Grevengoed17:46.0Spring Lake167.0
9Max Stitt17:46.8Hart166.7
11Jackson Kulawiak17:48.2Buckley166.3
11Levi Mills17:48.8Lowell166.1
12Will Phillips17:49.6Traverse City Central165.8
12George Samra17:49.7East Grand Rapids165.8
12Cale Coppess17:50.4Montague165.5
12Carter Dean17:52.1Traverse City West165.0
11Owen Fairchild17:54.0Montague164.3
11Grant Conger17:55.7Frankenmuth163.8
11Skylar Werden17:55.9Frankfort163.7
10Ben Habers17:56.7Traverse City West163.4
11Brendan Wangler17:56.9Jenison163.4
12Sam Vitale17:58.6St. Clair162.8
12Toby Hall17:59.5Johannesburg-Lewiston162.5
11Austin Winkle17:59.5Jenison162.5
10Nic Porter18:00.1Clare162.3
12Keegan Cater18:01.3Lowell161.9
12Landyn Cool18:01.4Leroy Pine River161.9
12Connor Lubberts18:01.4Jenison161.9
10Abdul Ghennewa18:01.5Manistee161.8
11Ronin Vaden18:01.9Johannesburg-Lewiston161.7
10Lucas Ruffing18:04.6Spring Lake160.8
10Alex Durocher18:05.0Traverse City Central160.7
11Davis Head18:08.9East Grand Rapids159.4
11Jude Meldrum-Roy18:09.1North Muskegon159.3
12Connor Kreger18:12.1St. Clair158.3
10Tanner Soelberg18:12.6Shelby158.1
10Trey Keson18:13.6Ludington157.8
9August Rohde18:15.0Reed City157.3
10Claydon Ingleright18:15.7McBain157.1
10Lukas Reimers18:18.0Traverse City Central156.3
11Wyatt Dean18:18.2Hart156.3
12Jackson Thiel18:18.8Roscommon156.1
10Antonio Casarez18:19.5Lowell155.8
12Peter Worden18:20.7Traverse City West155.4
10Christian Kerfoot18:20.9Elk Rapids155.4
12Blake Bennett18:21.5Lowell155.2
12Alex Weber18:22.4Lowell154.9
10Sam King18:23.1Traverse City West154.6
10Gavin Guggemos18:23.7Kalkaska154.4
11Joey Schwindt18:23.9Maple City Glen Lake154.4
10Camden Moore18:24.6Kalkaska154.1
10Dylan Distelrath18:27.5St. Clair153.2
11Connor McIntyre18:27.6Traverse City St. Francis153.1
10Jonathan Koetje18:27.6Grand Rapids Christian153.1
11Chase Snell18:27.7Grand Traverse Academy153.1
11Seth Ackley18:28.4Hart152.9
10Abe VanDuinen18:30.0Pentwater152.3
12Philip Rigling18:31.1Leroy Pine River152.0
10Peter Hybza18:31.2Mason County Eastern151.9
11Dannion Simmet18:32.7Lowell151.4
10Justin Clement18:32.7Jenison151.4
10Will Parsekian18:35.6Muskegon Mona Shores150.5
9Mason Lucas18:35.6Jenison150.5
11Tony Rao18:35.7East Grand Rapids150.4
12Kristian Rose18:37.9Jenison149.7
10Clay Johnson18:38.0Montague149.7
9Rowen Bishop18:38.8East Grand Rapids149.4
12Charlie Ward18:39.4Elk Rapids149.2
11Eli Assaf18:41.2East Grand Rapids148.6
9George Janson18:41.8East Grand Rapids148.4
11Michael Musgrave18:42.4Benzie Central148.2
10Jack O’Donnell18:43.4Manistee147.9
11Steven Butler18:43.4Almont147.9
12Evan Klein18:44.5Lowell147.5
12Kreegan Deverney18:44.6Spring Lake147.5
12Keegan Reimers18:44.9Traverse City Central147.4
10Juan Marin18:45.0McBain147.3
12Eli Shoup18:45.7Mason County Eastern147.1
9Dominic Otto18:46.0Jenison147.0
11Judge Morgan18:46.6Traverse City St. Francis146.8
12Ricky McMurray18:46.9Bellaire146.7
12Isaac Scouten18:47.3Shelby146.6
11Jax Gianossa18:48.3St. Clair146.2
11Caleb Kerfoot18:48.3Elk Rapids146.2
11Carter Boullard18:49.3St. Clair145.9
10Jackson Price18:49.4Traverse City Central145.9
10Seth Brown18:51.3Elk Rapids145.2
9Max Ward18:51.4Elk Rapids145.2
11James Wilson18:51.6Montabella145.1
11Rowan Jansen18:52.9Grand Rapids Christian144.7
10Peter Kuperus18:52.9Grand Rapids Christian144.7
9Luke Pettengill18:54.3McBain Northern Michigan Christian144.2
11Austin Barding18:55.0Spring Lake144.0
12Ben DuCheny18:55.0Buckley144.0
10Jaymes Wildfong18:55.1Mancelona144.0
12Jacob Heeringa18:55.3Traverse City St. Francis143.9
9Matthew Schwartz18:57.2Jenison143.3
10Kaden Forward18:58.1Bear Lake-Onekama143.0
12Max Nienhuis18:58.8Hart142.7
10Andrew Klaus18:59.3Clare142.6
11William Hyson19:00.5Jenison142.2
10Brian Kilborn19:01.1Roscommon142.0
11Will Marth19:01.9Jenison141.7
11Dade Allen19:02.6Benzie Central141.5
11Tanner Guczwa19:02.9Spring Lake141.4
10Tyler Vining19:03.6Morley-Stanwood141.1
12Cohen Young19:04.0Clare141.0
11Nick Thuente19:04.8Traverse City St. Francis140.7
9Charlie Chappus19:04.8East Grand Rapids140.7
12Gabe TerHaar19:04.9Jenison140.7
10Easton Vander Zwaag19:04.9Hart140.7
12Logan Foster19:05.5Frankfort140.5
12McMillan Quinn19:05.7Traverse City West140.4
9Andrew Wangler19:06.9Jenison140.0
10Evan Atkinson-miller19:08.4North Muskegon139.5
12Austin Brown19:09.3Traverse City West139.2
11Rhys Sandman19:09.5Lowell139.2
10Evan Arleth19:09.8Traverse City Central139.1
10Nathan Koetje19:11.0McBain138.7
11Corbin Devilbiss19:12.6East Grand Rapids138.1
9Parker Woodwyk19:13.6Spring Lake137.8
11Gavin Shirey19:14.1Mason County Central137.6
11Tommy Skendzel19:15.2Traverse City St. Francis137.3
9Alex Tyndall19:17.0Mason County Eastern136.7
10Adam Townsend19:17.7Frankfort136.4
12Logan Balis19:18.4Belding136.2
12Nick Penrice19:18.8Spring Lake136.1
12James Lakie19:19.1Mancelona136.0
10Paxton Hall19:19.4Lake City135.9
11Josef Bromley19:21.7Hart135.1
10Kaiden Morey19:21.9Traverse City Central135.0
12Joe Perry19:21.9Johannesburg-Lewiston135.0
12Logan May19:22.0Johannesburg-Lewiston135.0
11Parker Maciejewski19:24.9North Muskegon134.0
11Hayden Wood19:24.9Clare134.0
9Parker Strelecki19:25.2Jenison133.9
11Winston Pelloski19:26.5Kingsley133.5
12Evan Bennett19:26.8Ludington133.4
10Grayson Carpenter19:27.8Spring Lake133.1
11Savian Tarrant19:28.2Traverse City St. Francis132.9
12Cole Ingleright19:28.7McBain132.8
12Jaden Henderson19:29.4Jenison132.5
12Andre-Ross Gennette19:30.8Spring Lake132.1
10Adam Williams19:32.3Kalkaska131.6
12Caspar Dicke19:32.3East Grand Rapids131.6
10Clay Shoup19:32.6Mason County Eastern131.5
12Dominic Pirrone19:33.0Almont131.3
12Joel Ewald19:33.8Roscommon131.1
11Aidan Maki19:38.2Frankenmuth129.6
9Lewis Walter19:38.8Traverse City St. Francis129.4
Oliver Mitchell19:42.1Lake Leelanau St. Mary128.3
11Kyle Roeters19:42.5Traverse City Central128.2
11Mason Dozier19:43.2Reed City127.9
11Mitchell Winks19:45.1Grand Rapids Christian127.3
10Dominik Lamberts19:45.9Jenison127.0
9Keegan Hoekstra19:46.4Grand Rapids Christian126.9
11Dorian Olson19:46.7Benzie Central126.8
11Blake Knox19:47.6Traverse City St. Francis126.5
9Mason Sinke19:48.2Bear Lake-Onekama126.3
11Reece Ondersma19:48.6Jenison126.1
9Miller Pomper19:49.7Benzie Central125.8
11Braden Melville19:50.0Buckley125.7
12Caiden Cudney19:50.8Manistee125.4
12Jacob Caton19:51.1Frankenmuth125.3
10Izaiah Lentz19:51.2Reed City125.3
9Shiloh Gersenson19:51.8Traverse City Central125.1
11Carter Lewis19:52.7Leroy Pine River124.8
11Dan Wildfong19:53.6Mancelona124.5
12Keese Villarreal19:54.5Ludington124.2
11Shelby Hopkins19:55.9Morley-Stanwood123.7
9Garrett Abel19:56.5Spring Lake123.5
10Kaden Abrahamson19:56.7McBain123.4
9Caidan Gaskill19:58.1Clare123.0
9Cougar Clark19:58.4Frankenmuth122.9
10David Russell19:58.8Traverse City Central122.7
11Caleb Grimshaw19:59.0Frankenmuth122.7
9Daniel Dunn19:59.8Muskegon Reeths-Puffer122.4
9Nathan Koches19:59.9Spring Lake122.4
11Blake Bouwman20:01.1Grand Rapids Christian122.0
12Austin Rubin20:01.2Grand Traverse Academy121.9
10Elijah Lentz20:03.4Reed City121.2
10Tate Bradley20:04.0Muskegon Reeths-Puffer121.0
10Zach Boehr20:04.0Lowell121.0
12Riley Daily20:05.4Montabella120.5
10Curtis Fuller20:05.5Ludington120.5
10Hudson Kiteley20:07.2Benzie Central119.9
10Jack Joyce20:07.7Leland119.8
9Weston Carpenter20:10.1Spring Lake119.0
9David Reisterer20:10.9Ludington118.7
12Andrew Booher20:13.3Evart117.9
10Scott Slocum20:13.8Leroy Pine River117.7
10Braden Dalm20:14.3North Muskegon117.6
9Zach Hartemink20:14.3Grand Rapids Christian117.6
10Nathan Baker20:14.4Grand Rapids Christian117.5
10Nevin Slater20:15.1Ludington117.3
12William Garrison20:15.3Belding117.2
11Cullen Kraus-McCarty20:15.4Mason County Central117.2
12Brock Outman20:18.8Lakeview116.1
12Matt Popp20:21.9Traverse City West115.0
12Quinten Burlew20:22.8Jenison114.7
9Nathan Chapin20:23.0Jenison114.7
12Will Siegert20:26.3Ludington113.6
9Kyan Deam20:27.2Big Rapids113.3
9Riley Pattinson20:28.3Traverse City St. Francis112.9
11Jacob Lindeman20:29.5Manistee112.5
10Braxton Zenner20:30.3Kingsley112.2
10Quinten Musgrave20:31.1Benzie Central112.0
10Brendan Nolan20:33.0Coopersville111.3
12Luca Pham20:34.5Jenison110.8
11Brady Lane20:34.7Traverse City Central110.8
10Luca Menestrina20:34.7Bellaire110.8
11James Davis20:34.9Pentwater110.7
10Christian Leachman20:37.6Traverse City West109.8
12Ryan Rymal20:37.9Spring Lake109.7
9Morgan Hill20:41.0Traverse City Central108.7
10Travis Madonna20:42.8Grand Rapids Northview108.1
10Ben Hamina20:43.1Roscommon108.0
12Nathan Huss20:44.6Reed City107.5
11Michael Gottleber20:45.2Cadillac107.3
9Owen Read20:45.4Traverse City St. Francis107.2
12Jordan Fink20:47.0Manistee106.7
11Steven Gascoinge20:47.5Evart106.5
12Jacob Olds20:49.0Kalkaska106.0
9Tim Pentecost20:49.8Evart105.7
11Trevor Adamczak20:50.2Manistee105.6
11Cory Vader20:51.7Evart105.1
11Nick Zwiers20:52.2Grand Rapids Christian104.9
9Carroll Robotham20:52.5Frankfort104.8
9Jack Baltes20:54.6Jenison104.1
9CJ Bennett20:56.0North Muskegon103.7
11Logan Tyson20:56.5North Muskegon103.5
10Ethan Vann20:57.1Leland103.3
9Otto Selbig20:57.9Traverse City West103.0
9Ayden Barcia21:00.0Clare102.3
12Logan Mekkes21:00.1Morley-Stanwood102.3
10Paul Skendzel21:01.5Traverse City St. Francis101.8
10Tyler Vanderzanden21:02.2Hart101.6
9Avery Guikema21:03.0Hart101.3
12Blaze Van Noord21:04.2Muskegon Reeths-Puffer100.9
11Noah Peters21:05.8East Grand Rapids100.4
11Trevor Moody21:05.9Frankfort100.4
12Conner Raeth21:07.6Montague99.8
10Joel Hardesty21:08.4Big Rapids99.5
9Lawrence Cubitt21:09.5Traverse City Central99.2
9Brandon Morley21:10.7Roscommon98.8
10Jack Jubar21:12.5Ludington98.2
11Joey Boni21:13.4Belding97.9
10Noah Britton21:13.8Jenison97.7
12Brandon Vanderzanden21:13.9Hart97.7
10Gavin Kelso21:14.8Leroy Pine River97.4
9Isaiah Mulheron21:15.2Clare97.3
9Rylan Bachman21:16.2Cadillac96.9
11Tristan Simrau21:16.6Traverse City West96.8
10Ben Vruggink21:17.4Spring Lake96.5
11Ethan Sharpe21:17.6Roscommon96.5
11Elliot Hoeflinger21:18.0Manistee96.3
10Benjamin Phelps21:18.1East Grand Rapids96.3
10James Thorpe21:18.6Jenison96.1
11Mitchell Hall21:19.0Johannesburg-Lewiston96.0
10Freddie Santangelo21:19.0Cadillac96.0
9Noah Zelinski21:21.8Traverse City St. Francis95.1
9Kai Miller21:23.2Hart94.6
10Braylin Thurow21:23.3Mason County Central94.6
9Carter Charnley21:23.6Spring Lake94.5
11Tyler Thurow21:24.2Mason County Central94.3
10Braylon Iakiri21:24.2Lowell94.3
11Seth VanOss21:24.7Grand Rapids Christian94.1
12Victor Benegni21:27.5Morley-Stanwood93.2
9Micah Derks21:29.0Jenison92.7
9Jason Jansen21:30.8Elk Rapids92.1
9Greyson Hoeflinger21:31.8Manistee91.7
10Zane McCabe21:32.7Mason County Central91.4
10Alecio Muschiana21:34.1Frankenmuth91.0
9Jacob Voetberg21:35.7Grand Rapids Christian90.4
12Sam Rickerd21:37.0Coopersville90.0
11Karson Swiszowski21:38.8Mancelona89.4
9Calvin Brinks21:39.2Grand Rapids Christian89.3
11Logan Smith21:41.7Jenison88.4
12Thomas Dyer21:42.6Almont88.1
10Mason Stafford21:45.5Muskegon Mona Shores87.2
10Jackson Kay21:49.8Grand Rapids Northview85.7
9Quinton Tobias21:51.1Johannesburg-Lewiston85.3
12Ethan Larsen21:51.8Grand Traverse Academy85.1
10Henry VanderMolen21:52.0East Grand Rapids85.0
12Gavin Grabill21:54.3Big Rapids84.2
Cody Couturier21:54.4Lake Leelanau St. Mary84.2
11Peter Maddox21:54.8Lake City84.1
10Brayden Czarnecki21:55.5Jenison83.8
12Miles Lettinga21:55.7Traverse City Central83.8
9Christian Hicks21:56.5Kalkaska83.5
11Gabe Navarre21:56.7Traverse City West83.4
11Austin Benitez21:57.0Manistee83.3
12Keegan Jeane21:57.8Benzie Central83.1
12Kirgin Tanis21:59.2Grand Rapids Northview82.6
9Landon Kulawiak22:00.0Buckley82.3
12Clay Oosterhouse22:00.9Big Rapids82.0
9Harry Cornell22:02.1East Grand Rapids81.6
12Hunter Mossel22:05.4Big Rapids80.5
12Ted Bell22:06.6Clare80.1
11Victor Wu22:07.0Muskegon Mona Shores80.0
9John Studzinski22:07.9Traverse City St. Francis79.7
11William VanderLaan22:09.2East Grand Rapids79.3
10Evan Chandler22:11.6Benzie Central78.5
11Willem Gollannek22:11.8East Grand Rapids78.4
9Matt Spedoske22:14.7Big Rapids77.4
10Lincoln Walicek22:16.4Frankenmuth76.9
11Andrew Pavwoski22:16.6Grand Traverse Academy76.8
9Isaac Primm22:17.5Spring Lake76.5
11Levi VanderSloot22:18.0Grand Rapids Christian76.3
12Gavin Van’tHof22:18.3Grand Rapids Northview76.2
11Charlie Hicks22:20.5Clare75.5
12Tommy Harvell22:20.6Shelby75.5
11Colin DeKam22:20.7McBain Northern Michigan Christian75.4
9Gavin Campbell22:20.9Almont75.4
12Seth Thompson22:23.0Manistee74.7
9Ethan Fessenden22:24.6Shelby74.1
11Kees Duncan22:27.8East Grand Rapids73.1
11Liam Boyd22:28.3Bellaire72.9
11George Murphy22:30.9East Grand Rapids72.0
9Benjamin Slagter22:31.1Jenison72.0
10Dustin Maatman22:36.0Belding70.3
12John May22:36.4Morley-Stanwood70.2
11Brady Read22:36.7Traverse City St. Francis70.1
9Andrew Sherburn22:37.0Hesperia70.0
9Hayden Gould22:38.8Big Rapids69.4
11Riley Truog22:38.9Maple City Glen Lake69.4
12Mick Robinson22:42.9Bellaire68.0
11Noah Murphy22:43.0Benzie Central68.0
9Trevor Moore22:43.6Belding67.8
9Jacob Marth22:44.9Jenison67.4
10Dylan Norton22:44.9Grand Rapids Northview67.4
10Gavin Wierenga22:47.1Muskegon Reeths-Puffer66.6
12Hans Lobes22:47.2Mancelona66.6
12Ethan Outman22:49.5Lakeview65.8
9Zac Taylor22:49.6Traverse City St. Francis65.8
11Jase Bunce22:55.0Belding64.0
9Elliot Buchan22:55.6Grand Rapids Northview63.8
10Aiden O’Dwyer22:55.6Frankfort63.8
9Lewis Roubal22:56.0Traverse City Central63.7
12Bradley Springberg22:58.5McBain62.8
9Henry Malburg22:59.1Mason County Eastern62.6
9Ron Hasenbank23:01.2Mason County Eastern61.9
9Lucas Lamborne23:01.3Belding61.9
9Wyatt Remar23:04.0Lowell61.0
12Wyatt Underhill23:04.0Leroy Pine River61.0
9Gage Bouwman23:04.6Muskegon Reeths-Puffer60.8
12Quentin O’Donnell23:06.1Spring Lake60.3
9Wyatt Roberts23:06.9Pentwater60.0
9Armand Arakaza23:10.1Grand Rapids Christian59.0
10Elijah Kimbel23:12.7McBain Northern Michigan Christian58.1
9Paul Fowler23:13.4Lowell57.9
9Owen Martin23:14.3Traverse City Central57.6
11Theodore Conrad23:14.9Muskegon Mona Shores57.4
9Kaleb Chisholm23:17.3Frankfort56.6
9Olin Kasperowicz23:20.5Traverse City St. Francis55.5
10Ben Collins23:20.9Roscommon55.4
9Nate McAvoy23:23.7Frankenmuth54.4
10Bowen Robinson23:25.8Hesperia53.7
12David Olds23:29.6Kalkaska52.5
10Harsen Bowlby23:30.3Traverse City West52.2
11Greg Reed23:33.4Benzie Central51.2
12Matthew Schout23:33.5Belding51.2
12Kindred Burke23:38.0Traverse City West49.7
9Parker VanHill23:38.1Grand Rapids Christian49.6
10Jacob Vandervelde23:38.9North Muskegon49.4
Derek Graham23:41.1Lake Leelanau St. Mary48.6
10Micah Frye23:43.1Shelby48.0
12Hayden Madl23:45.1Ludington47.3
12Evan Ranger23:47.2Traverse City West46.6
11Gaspard Largard Me…23:55.2McBain Northern Michigan Christian43.9
9Xander Helenius23:57.7Grand Rapids Northview43.1
10Jonah Sanchez24:00.4Coopersville42.2
12Conner Maycroft24:00.9Coopersville42.0
12Lorenzo Milazzo24:02.9McBain Northern Michigan Christian41.4
9Gabriel Comp24:09.1Lake City39.3
9Quinn Mitchell24:09.5Lowell39.2
9Jaxon Ely24:11.4Ludington38.5
12Jeffrey Barbiero24:12.4Kalkaska38.2
9Parker Rubin24:14.6Grand Traverse Academy37.5
12Cannan Morgan24:14.8Evart37.4
11Nathan Rose24:15.4East Grand Rapids37.2
10Sawyer Burke24:18.8Traverse City West36.1
9Logan Face24:29.7Kingsley32.4
9Thomas Weinert24:32.5Ludington31.5
9Zach Rizor24:33.2Leroy Pine River31.3
11Landon Battle24:33.5Lowell31.2
10Joe Korcek24:35.7Lowell30.4
10Nate Darling24:38.4Muskegon Reeths-Puffer29.5
11Caiden Keysor24:39.5Evart29.2
11Alex Heiden24:39.9Almont29.0
9Jack Pummill24:40.4Spring Lake28.9
9Ben Atkins24:41.1Lowell28.6
11Jack Goulet24:41.5Muskegon Mona Shores28.5
9Clayton Keysor24:41.7Evart28.4
10Chase Jones24:45.4Almont27.2
9Corey Sandman24:47.0Lowell26.7
11Jacob Booher24:47.1McBain Northern Michigan Christian26.6
9Luke Witte24:48.3Grand Rapids Christian26.2
9Bryce Elmy24:52.8Kalkaska24.7
12Tucker Vandervelde24:56.4McBain23.5
9Graham Hislop25:02.4Traverse City West21.5
12Luke Thompson25:02.6Clare21.5
12Nick Picardat25:04.5Traverse City St. Francis20.8
12Trenton Barone25:06.3Big Rapids20.2
9Bennett Garton25:09.5Traverse City St. Francis19.2
10Trenton Gladu25:15.3McBain Northern Michigan Christian17.2
10Kyler Behrenwald25:15.9Lakeview17.0
9Hogan Walter25:16.9Clare16.7
9Owen Forrester25:21.5Ludington15.2
11Eli Powers25:22.5Pentwater14.8
11Samuel Rysko25:23.8Jenison14.4
12Kylen Kintigh25:33.6Leland11.1
12Campbell Miller25:33.9Pentwater11.0
10Asher Johnson25:34.0Mason County Central11.0
10Brendan McIntyre25:34.2Traverse City St. Francis10.9
9Zachary Chaussee25:37.0Traverse City Central10.0
10Gil Piche25:40.3Grand Traverse Academy8.9
9Weston Kinney25:42.4Grand Traverse Academy8.2
10James Licht26:03.4Lake Leelanau St. Mary1.2

Leave a Reply

Fill in your details below or click an icon to log in:

WordPress.com Logo

You are commenting using your WordPress.com account. Log Out /  Change )

Google photo

You are commenting using your Google account. Log Out /  Change )

Twitter picture

You are commenting using your Twitter account. Log Out /  Change )

Facebook photo

You are commenting using your Facebook account. Log Out /  Change )

Connecting to %s